Dauphin Barker Airport
CYDN : now visible

Airfield :











YOU CAN JOIN US ON...

 
LOGIN :

Register | Disclaimer

   EN    FR    IT 

 









Legend :    VFR   Marginal VFR   IFR   Intensive IFR   Very Intensive IFR
Visi :
Ceiling :
>= 8 km
>= 3000ft
5 to 8 km
1000 to 3000 ft
1500m to 5 km
500 to 1000 ft
800 to 1500m
200 to 500 ft
< 800m
< 200 ft
Symbols :   Thunderstorms  Fog  Heavy snow  Heavy precipitations  Wind > 20 kt






- Airport Elevation : 999 ft
- IATA code : YDN


CYDN - Dauphin Barker

CURRENT METAR :
  • 071500Z AUTO VRB02KT 9SM CLR 07/M04 A3029 RMK SLP270

EXPIRED METARs :
  • 071400Z AUTO 28003KT 260V320 9SM CLR 04/M04 A3030 RMK SLP277
  • 071300Z AUTO 28005KT 9SM CLR 01/M05 A3030 RMK SLP276

TAF TAF CYDN
Valid from the 07 at 12:00 until the 08 at 00:00 UTC


071140Z 0712/0724 27006KT P6SM SKC
BECMG 0715/0717 06010KT RMK FCST BASED ON AUTO OBS. NXT FCST BY 071800Z
CZWG FIR / North America



MET'MAP, your aeronautical weather chart ! - Copyright ORBIFLY December 2007 - Disclaimer

ORBIFLY MET'MAP TEAM :

Programming & Development : Alexandra Zaïnal
Concept & original design : Baudouin d'Aumeries
Assistance for programming : Marc-Olivier Méhu
Technical & hardware support : Manuel Goepfert

Contact : metmap@orbifly.com




SOURCES & CREDITS :

   NOAA       Earth
Advisory